This is the latest recevied weather packets stored in our database for station/object PA3CPS. If no packets are shown the sender has not sent any weather packets the latest 10 day(s).
| Time | Temp. | Humidity | Pressure | Rain* | Wind** | Luminosity | Snow |
|---|---|---|---|---|---|---|---|
| 1777798951 | 20° C | 79% | 1010 hPa | 0 mm | - | 443 W/m² | - |
| 1777798651 | 20° C | 79% | 1010 hPa | 0 mm | - | 457 W/m² | - |
| 1777798352 | 20° C | 77% | 1010.1 hPa | 0 mm | - | 469 W/m² | - |
| 1777798051 | 20° C | 77% | 1010 hPa | 0 mm | - | 450 W/m² | - |
| 1777797752 | 20° C | 78% | 1010 hPa | 0 mm | - | 455 W/m² | - |
| 1777797450 | 20° C | 78% | 1010 hPa | 0 mm | - | 513 W/m² | - |
| 1777797151 | 20° C | 77% | 1009.9 hPa | 0 mm | - | 559 W/m² | - |
| 1777796850 | 20° C | 78% | 1010 hPa | 0 mm | - | 628 W/m² | - |
| 1777796551 | 19.44° C | 79% | 1009.9 hPa | 0 mm | - | 613 W/m² | - |
| 1777796254 | 19.44° C | 79% | 1009.9 hPa | 0 mm | - | 587 W/m² | - |
| 1777795952 | 18.89° C | 81% | 1010 hPa | 0 mm | - | 550 W/m² | - |
| 1777795651 | 18.89° C | 81% | 1010.1 hPa | 0 mm | - | 483 W/m² | - |
| 1777795352 | 18.89° C | 80% | 1010 hPa | 0 mm | - | 427 W/m² | - |
| 1777795050 | 18.33° C | 82% | 1010 hPa | 0 mm | - | 490 W/m² | - |
| 1777794750 | 17.78° C | 82% | 1009.9 hPa | 0 mm | - | 272 W/m² | - |
| 1777794441 | 17.78° C | 82% | 1010 hPa | 0 mm | - | 267 W/m² | - |
| 1777794138 | 18.33° C | 82% | 1010 hPa | 0 mm | - | 272 W/m² | - |
| 1777793839 | 18.33° C | 82% | 1010 hPa | 0 mm | - | 485 W/m² | - |
| 1777793536 | 18.33° C | 84% | 1010.1 hPa | 0 mm | - | 439 W/m² | - |
| 1777793236 | 17.78° C | 83% | 1010.2 hPa | 0 mm | - | 445 W/m² | - |
| 1777792934 | 17.78° C | 84% | 1010.3 hPa | 0 mm | - | 462 W/m² | - |
| 1777792632 | 17.22° C | 85% | 1010.2 hPa | 0 mm | - | 207 W/m² | - |
| 1777792329 | 17.22° C | 86% | 1010.2 hPa | 0 mm | - | 424 W/m² | - |
| 1777792027 | 16.67° C | 87% | 1010.3 hPa | 0 mm | - | 432 W/m² | - |
| 1777791725 | 16.67° C | 89% | 1010.4 hPa | 0 mm | - | 285 W/m² | - |
* Rain latest hour (hover to see other rain measurements)
** Current wind speed in m/s (hover to see current wind gust speed)